Regional Weather Roundup
Issued by NWS Raleigh/Durham, NC

Home | Current Version | Previous Version | Text Only | Print | Product List | Glossary On
Versions: 1 2 3 4 5 6 7 8 9 10 11 12 13 14 15 16 17 18 19 20 21 22 23 24 25 26 27 28 29 30 31 32 33 34 35 36 37 38 39 40 41 42 43 44 45 46 47 48 49 50
000
ASUS42 KRAH 202210
RWRRAH
NORTH CAROLINA WEATHER ROUNDUP
NATIONAL WEATHER SERVICE RALEIGH NC
600 PM EDT MON OCT 20 2014

NOTE: "FAIR" INDICATES FEW OR NO CLOUDS BELOW 12,000 FEET WITH NO
SIGNIFICANT WEATHER AND/OR OBSTRUCTIONS TO VISIBILITY.

NCZ001-053-055-056-065-067-202300-
WESTERN NORTH CAROLINA

CITY           SKY/WX    TMP DP  RH WIND       PRES   REMARKS
ASHEVILLE      MOCLDY    63  49  60 S7        30.00S
JEFFERSON      CLOUDY    58  45  62 CALM      30.02R
MORGANTON      PTCLDY    64  52  64 CALM      30.02S
HICKORY        PTCLDY    65  48  54 S7        29.98
RUTHERFORDTON  MOCLDY    65  50  57 S3        29.99S
MOUNT AIRY     CLEAR     65  50  57 SW3       29.99S
BOONE          CLOUDY    57  42  57 NW6       30.02F
$$

NCZ021-022-025-041-071-084-088-202300-
CENTRAL NORTH CAROLINA

CITY           SKY/WX    TMP DP  RH WIND       PRES   REMARKS
CHARLOTTE      PTCLDY    68  47  46 S9        29.99F
GREENSBORO     PTCLDY    66  46  48 SW10      29.97S
WINSTON-SALEM  CLEAR     66  45  46 SW6       29.98S
RALEIGH-DURHAM PTCLDY    66  46  48 W6        29.99S
FORT BRAGG     CLEAR     71  50  47 SW7       29.98S
FAYETTEVILLE   PTCLDY    72  50  45 S9        29.98S
BURLINGTON     PTCLDY    67  45  45 S5        29.97F
LAURINBURG     CLEAR     71  49  45 SW8       29.99S
$$

NCZ011-015-027-028-043-044-047-080-103-202300-
NORTHEASTERN NORTH CAROLINA

CITY           SKY/WX    TMP DP  RH WIND       PRES   REMARKS
ROCKY MT-WILSO CLEAR     67  51  56 S3        29.99F
GREENVILLE     CLEAR     70  50  49 SW7       30.01S
WASHINGTON     CLEAR     68  52  55 S7        30.00F
ELIZABETH CITY CLEAR     68  50  52 S7        30.00F
MANTEO         CLEAR     64  54  68 S8        30.03S
CAPE HATTERAS  PTCLDY    67  56  67 SE6       30.03F
$$

NCZ078-087-090-091-093-098-101-202300-
SOUTHEASTERN NORTH CAROLINA

CITY           SKY/WX    TMP DP  RH WIND       PRES   REMARKS
LUMBERTON      CLEAR     72  53  51 SW7       29.98F
GOLDSBORO      CLEAR     70  55  60 SW6       29.97F
KINSTON        CLEAR     70  52  52 S5        30.00F
KENANSVILLE    PTCLDY    69  53  58 CALM      30.00S
NEW BERN       CLEAR     69  54  58 S9        30.02F
CHERRY POINT   MOCLDY    67  55  65 S6        30.03F
BEAUFORT       PTCLDY    68  56  65 S5        30.02F
JACKSONVILLE   CLEAR     68  56  65 S9        30.00F
WILMINGTON     MOCLDY    70  57  63 S6        30.01S
$$



USA.gov is the U.S. government's official web portal to all federal, state and local government web resources and services.